www.pogodaiklimat.ru

Погода и климат >> Архив погоды >> Туркменистан >> Эсенгулы


АРХИВ ПОГОДЫ в Эсенгулы

Время (UTC), дата Ветер
(напр.,м/с)
 
Видим.   Явления Облачность Т
(С)
Тd
(С)
f
(%)
Тe
(С)
Тes
(С)
Комфортность P
(гПа)
Po
(гПа)
Тmin
(С)
Tmax
(С)
R
(мм)
R24
(мм)
S
(см)
21 16.08 СЗ 2 10 км ясно +23.3 +18.6 75 +29 +29 душно 1006.1 1008.8
00 17.08 З 2 10 км ясно +19.8 +16.4 81 +23 +23 комфорт 1006.1 1008.8
03 17.08 З 2 10 км ясно +21.0 +18.4 85 +26 +27 душно 1006.5 1009.2 +19.7
06 17.08 З 3 10 км ясно +28.6 +23.4 73 +39 +49 очень
душно
1008.2 1010.8 +19.7
09 17.08 З 5 10 км ясно +30.3 +22.5 63 +40 +49 очень
душно
1008.2 1010.8
12 17.08 З 3 10 км ясно +31.1 +21.0 55 +39 +45 очень
душно
1007.7 1010.3
15 17.08 З 2 10 км ясно +29.4 +21.5 63 +37 +37 очень
душно
1007.8 1010.4 +31.4
18 17.08 З 2 10 км ясно +27.0 +22.1 75 +35 +35 очень
душно
1007.4 1010.0 +31.4
21 17.08 З 2 10 км ясно +24.7 +21.2 81 +31 +31 очень
душно
1007.4 1010.0
00 18.08 З 2 10 км ясно +22.5 +19.5 83 +29 +29 очень
душно
1007.8 1010.5
03 18.08 Ю 1 10 км ясно +23.0 +20.1 84 +30 +31 очень
душно
1009.0 1011.7 +22.4
06 18.08 З 2 10 км ясно +28.5 +22.5 70 +37 +50 очень
душно
1010.4 1013.0 +22.4
09 18.08 З 3 10 км ясно +30.4 +21.4 59 +38 +53 опасность
солнечного
удара
1010.8 1013.4
12 18.08 З 3 10 км ясно +31.7 +18.4 45 +36 +43 очень
душно
1010.8 1013.4
15 18.08 З 2 10 км ясно +29.6 +19.5 55 +36 +36 очень
душно
1010.8 1013.4 +31.8
18 18.08 СЗ 1 10 км ясно +27.6 +21.7 70 +35 +35 очень
душно
1010.4 1013.0 +31.8
21 18.08 ЮВ 1 10 км ясно +23.9 +19.7 77 +29 +29 душно 1010.4 1013.1
00 19.08 Ю 1 10 км ясно +22.2 +18.9 82 +28 +28 душно 1010.4 1013.1
03 19.08 ЮЗ 2 10 км ясно +26.2 +21.5 75 +33 +35 очень
душно
1011.4 1014.0 +22.0
06 19.08 З 3 10 км ясно +29.6 +22.2 64 +38 +49 очень
душно
1013.6 1016.2 +22.0
09 19.08 З 3 10 км ясно +30.8 +19.5 51 +37 +51 опасность
солнечного
удара
1013.5 1016.2
12 19.08 З 3 10 км ясно +31.2 +20.6 53 +38 +44 очень
душно
1013.6 1016.2
15 19.08 СЗ 2 10 км ясно +30.0 +20.0 55 +36 +36 очень
душно
1013.7 1016.3 +22.0 +31.6
18 19.08 З 2 10 км ясно +27.8 +22.7 74 +37 +37 очень
душно
1013.5 1016.2 +31.6
21 19.08 З 1 10 км ясно +27.4 +23.6 80 +37 +37 очень
душно
1014.0 1016.7
00 20.08 З 1 10 км ясно +26.7 +24.1 86 +37 +37 очень
душно
1014.4 1017.1
03 20.08 З 1 10 км ясно +27.8 +22.7 74 +37 +38 очень
душно
1014.4 1017.1 +26.6
06 20.08 ЮЗ 3 10 км ясно +29.8 +21.5 61 +38 +48 очень
душно
1016.2 1018.8 +26.6
09 20.08 З 5 10 км ясно +31.8 +20.8 52 +39 +48 очень
душно
1016.8 1019.4
12 20.08 З 4 10 км ясно +31.4 +20.8 53 +38 +43 очень
душно
1016.8 1019.4
15 20.08 СЗ 2 10 км ясно +30.2 +21.3 59 +38 +38 очень
душно
1015.8 1018.4 +32.1
18 20.08 З 1 10 км ясно +27.8 +23.1 76 +37 +37 очень
душно
1015.3 1018.0 +32.1
21 20.08 З 1 10 км ясно +26.8 +22.5 77 +35 +35 очень
душно
1013.7 1016.4
00 21.08 ЮВ 1 10 км ясно +23.4 +20.3 83 +31 +31 очень
душно
1014.5 1017.2
03 21.08 Ю 1 10 км ясно +24.2 +20.8 81 +30 +32 очень
душно
1015.3 1018.0 +23.0
06 21.08 ЮЗ 2 10 км ясно +29.2 +21.5 63 +37 +49 очень
душно
1015.6 1018.3 +23.0
09 21.08 СЗ 3 10 км ясно +31.4 +21.4 55 +39 +54 опасность
солнечного
удара
1015.2 1017.8
12 21.08 СЗ 2 10 км ясно +32.3 +19.4 47 +38 +45 очень
душно
1014.2 1016.8
15 21.08 СЗ 2 10 км ясно +30.7 +18.5 48 +36 +36 очень
душно
1012.8 1015.4 +32.4
18 21.08 С 2 10 км ясно +28.3 +22.4 70 +37 +37 очень
душно
1011.9 1014.5 +32.4
21 21.08 З 1 10 км ясно +25.2 +21.1 78 +32 +32 очень
душно
1011.3 1013.9
00 22.08 З 2 10 км ясно +22.7 +19.2 81 +29 +29 очень
душно
1011.3 1013.9
03 22.08 Ю 2 10 км ясно +24.2 +21.0 82 +30 +32 очень
душно
1011.9 1014.6 +22.6
06 22.08 З 3 10 км 3/3 600 м
[Cu hum]
+29.4 +23.3 70 +40 +47 очень
душно
1013.1 1015.7 +22.6
09 22.08 СЗ 3 10 км ясно +31.8 +20.8 52 +39 +53 опасность
солнечного
удара
1013.0 1015.6
12 22.08 СЗ 4 10 км ясно +32.4 +20.1 48 +39 +44 очень
душно
1011.2 1013.8
15 22.08 СЗ 4 10 км ясно +30.6 +20.2 54 +37 +37 очень
душно
1010.4 1013.0 +32.6
18 22.08 З 1 10 км ясно +28.6 +21.9 67 +37 +37 очень
душно
1010.2 1012.8 +32.6
21 22.08 З 1 10 км ясно +25.3 +20.0 72 +31 +31 очень
душно
1010.3 1012.9
00 23.08 Ю 1 10 км ясно +23.3 +20.4 84 +31 +31 очень
душно
1010.3 1012.9
03 23.08 ЮВ 2 10 км 3/3 600 м
[Cu hum]
+24.4 +21.5 84 +31 +32 очень
душно
1011.4 1014.1 +22.9
06 23.08 З 2 10 км ясно +30.8 +22.2 60 +40 +52 опасность
солнечного
удара
1012.7 1015.4 +22.9
09 23.08 З 3 10 км ясно +33.1 +19.1 44 +38 +53 опасность
солнечного
удара
1012.1 1014.7
12 23.08 З 3 10 км ясно +33.6 +19.2 43 +39 +45 очень
душно
1012.1 1014.7
15 23.08 З 3 10 км ясно +31.2 +22.4 60 +41 +41 опасность
перегрева
1011.2 1013.8 +33.8

 

Местоположение метеостанции Эсенгулы (Балканский велаят, Туркменистан): широта 37.47 долгота 53.97 высота над уровнем моря -22 м.

В архиве по умолчанию представлена погода в Эсенгулы за последнюю неделю. Архивные данные за месяц целиком и за предыдущие месяцы, начиная с января 2011 года, Вы можете получить, выбрав интересующий диапазон дат из раскрывающегося списка и нажав кнопку "Ввод!".


*Определитесь, кто Вы:
робот инопланетянин человек

Внимание! Время в таблицах - всемирное. Для получения местного времени необходимо прибавить поправку, которая равна 5 ч.

Смотрите также архив погоды в соседних городах и на ближайших метеорологических станциях:

Погода в Гызылетреке (Балканский велаят, Туркменистан) (73 км)
Погода в Горгане (Иран) (74 км)
Погода в Бабольсере (Иран) (144 км)
Погода в Шахруде (Иран) (146 км)
Погода в Эскандар Кола (Иран) (153 км)
Погода в Мараве Таппе (Иран) (181 км)
Погода в Огрыде (Балканский велаят, Туркменистан) (197 км)
Погода в Семнане (Иран) (220 км)
Погода в Небит-Даге (Балканский велаят, Туркменистан) (228 км)
Погода в Гаррыгале (Балканский велаят, Туркменистан) (231 км)

Пояснения к столбцам:

Ветер - указаны скорость ветра в м/с - средняя за 10 мин, порывы в срок и между сроками (в фигурных скобках) и направление, откуда дует ветер: С - северный, СВ - северо-восточный, В - восточный, ЮВ - юго-восточный, Ю - южный, ЮЗ - юго-западный, З - западный, СЗ - северо-западный.
Видимость - горизонтальная дальность видимости в метрах или километрах. При видимости от 1 до 10 км при отсутствии осадков обычно наблюдается дымка, при ухудшении видимости до 1 км и менее - туман. В сухую погоду видимость может ухудшаться дымом, пылью или мглою.
Явления - указаны атмосферные явления, наблюдавшиеся в срок или в последний час перед сроком; фигурными скобками обозначены явления, наблюдавшиеся между сроками (за 1-3 часа до срока); квадратными скобками обозначены град или гололедные отложения с указанием их диаметра в мм.
Облачность - указаны через наклонную черту общая и нижняя облачность в баллах и высота нижней границы облаков в метрах; квадратными скобками обозначены формы облаков: Ci - перистые, Cs - перисто-слоистые, Cc - перисто-кучевые, Ac - высококучевые, As - высокослоистые, Sc - слоисто-кучевые, Ns - слоисто-дождевые, Cu - кучевые, Cb - кучево-дождевые. Подробнее классификацию облаков см. в Атласе облаков (PDF).
T - Температура воздуха - температура, измеренная на высоте 2 м над землей.
Td - Температура точки росы - температура, при понижении до которой содержащийся в воздухе водяной пар достигнет насыщения.
f - Относительная влажность воздуха - влажноcть воздуха, измеренная на высоте 2 м над землей.
Te - Эффективная температура - температура, которую ощущает одетый по сезону человек в тени. Характеристика душности погоды. При расчете учитывается влияние влажности воздуха и скорости ветра на теплоощущения человека.
Tes - Эффективная температура на солнце - температура, которую ощущает человек, с поправкой на солнечный нагрев. Характеристика знойности погоды. Зависит от высоты солнца над горизонтом, облачности и скорости ветра. Ночью, в пасмурную погоду, а также при ветре 12 м/с и более поправка равна нулю.
P - Атмосферное давление - приведенное к уровню моря атмосферное давление.
Po - Атмосферное давление - измеренное на уровне метеостанции атмосферное давление.
Tmin - Минимальная температура - минимум температуры воздуха на высоте 2 м над землей.
Tmax - Максимальная температура - максимум температуры воздуха на высоте 2 м над землей.
R - Количество осадков - Количество выпавших осадков за период времени, мм. При наведении курсора мыши на число - период времени, за который выпало указанное количество осадков.
R24 - Количество осадков - Количество выпавших осадков за 24 часа, мм.
S - Снежный покров - Высота снежного покрова, см. При наведении курсора мыши на число - состояние снежного покрова и степень покрытия местности в баллах.